Terminal Aerodrome Forecast
Issued by NWS North Platte, NE

Home | Current Version | Previous Version | Text Only | Print | Product List | Glossary Off
Versions: 1 2 3 4 5 6 7 8 9 10 11 12 13 14 15 16 17 18 19

000
FTUS43 KLBF 252000 AAA
TAFVTN
TAF AMD
KVTN 252007Z 2520/2618 02014G22KT 1 1/2SM -SN BR SCT008 OVC015
     FM252100 01014G20KT 1SM -SN BR SCT010 OVC015
      TEMPO 2521/2601 1/2SM -SN FZFG
     FM260100 36016G24KT 2SM -SN BR OVC012
     FM261500 36010KT 5SM BR OVC005=

USA.gov is the U.S. government's official web portal to all federal, state and local government web resources and services.